Showing default

GONETS M 11 (M21), 40552

Orbit data source: Space-Track

GONETS M 11 (M21), 40552 is a payload satellite owned by Gonets (CIS) in LEO that was launched on Tue, 31 Mar 2015 UTC via an ROKOT launch vehicle from the Plesetsk Missile And Space Complex (PKMTR). Payload-class satellites include a variety of spacecraft equipped with specific instruments for various scientific and technological missions. These include communications satellites like Starlink; space stations such as the ISS; scientific satellites like the Hubble; Earth observation satellites from companies like Planet Labs, Umbra, and HawkEye 360; GPS; miniature CubeSats for education and research; and military/defense satellites.

Loading next visibility...
Identifier
40552, 2015-020A
Orbit
LEO
Country
Flag of CISCIS
Related business
Manufacturer
Resehetnev ISS
Mission
Operational Commercial Communications
Bus & Motor
STRELA-3M, Unknown motor
Mass
225 kg wet, 225 kg dry
Launch date (UTC)
2015-03-31 (11 years ago)
Launch vehicle
ROKOT
Launch site
Plesetsk Missile And Space Complex (PKMTR)
Object type
Payload
Rocket body
Debris
Shape & HBR
Cyl + 1 Ant, 3.5 m
Radar Cross Section
1.798 m², Large (>1 m²)

Expand to show TLE details & history
Last TLE update: 7 hours ago

TLE from 7 hours ago
0 GONETS M 11 (M21)
1 40552U 15020A   25346.97759649  .00000058  00000-0  34494-3 0  9990
2 40552  82.4847 147.0175 0016389  50.6631 309.5898 12.42868507485602
Epoch: 2025-12-12T23:27Z
TLE epoch observation values (Epoch: 2025-12-12T23:27:44.336Z)
Latitude
-0.00006°
Longitude
73.17128°
Altitude
1,488.955 km
Speed
7.123 km/s
True Right ascension
09h 48m 04s
True Declination
0° 00' 00"
Sunlit
Object was in daylight at epoch
Visualization orbit readout
Latitude
Unknown
Longitude
Unknown
Altitude
Unknown
Speed
Unknown
Apparent Right ascension
Unknown
Apparent Declination
Unknown
Sunlit
N/A
Visualization observer readout
Local Sidereal Time
04:49:05
Azimuth
Unknown
Elevation
Unknown
Doppler factor
Unknown
Orbital elements
Apogee altitude
1,504.717 km
Perigee altitude
1,478.92 km
Semi-major axis
7,869.956 km
Eccentricity
0.00164
Inclination
82.4847°
RAAN
147.0175°
Arg. of periapsis
50.6631°
True anomaly
309.44488°
Mean anomaly
309.5898°
Eccentric anomaly
309.51736°
Mean motion
3.10874 °/min
Orbital period
115.8 mins
BSTAR
0.00034494
Loading maneuver chart data...
Computing Atmospheric mass density...
Loading historical data...
Loading historical data...
Loading historical data...
Loading historical data...
Loading historical data...
Loading historical data...
Loading historical data...

Documentation

Showing up to 5 results
|